Location: Bandys
(35.4750°N, 81.0830°W)
Time: 09:57:22
(UTC-04:00)

Daily predictions for brighter satellites

Satellite Brightness Start Highest point End
(mag) Time Altitude Azimuth Time Altitude Azimuth Time Altitude Azimuth
ATLAS CENTAUR R/B 1.9 20:23:28 10° NNW 20:25:54 51° NE 20:31:33 10° SE
Cosmos 2297 Rocket 2.6 20:25:06 10° NNW 20:30:43 67° WSW 20:36:19 10° S
ALOS 2.4 20:26:14 10° SSE 20:30:54 87° W 20:35:35 10° NNW
Nadezhda 4 Rocket 4.2 20:25:15 10° N 20:31:21 52° E 20:37:27 10° SSE
DELTA 2 R/B (1) 3.8 20:26:23 10° WNW 20:32:01 74° NNE 20:37:37 10° E
FENGYUN 3A 3.7 20:27:23 10° SSE 20:32:44 90° ESE 20:38:07 10° NNW
Cosmos 1892 3.1 20:31:32 10° N 20:35:10 41° E 20:38:46 10° SSE
H-2A R/B 2.7 20:35:54 10° SSE 20:39:48 73° ENE 20:43:41 10° N
Cosmos 1092 Rocket 4.5 20:34:01 10° N 20:40:01 42° E 20:45:58 10° SSE
Cosmos 2322 Rocket 3.1 20:36:00 10° SSE 20:40:25 25° ESE 20:44:52 10° NE
Meteor 2-3 Rocket 3.8 20:34:49 10° N 20:40:32 71° E 20:46:16 10° SSE
Cosmos 1315 Rocket 3.8 20:37:14 10° NNE 20:40:46 28° ENE 20:44:16 10° SE
Cosmos 2034 Rocket 4.2 20:34:55 10° S 20:41:06 77° W 20:47:16 10° N
USA 186 2.6 20:39:44 10° SE 20:41:55 24° ENE 20:44:15 10° NNE
Cosmos 1707 Rocket 3.8 20:41:14 10° SSE 20:45:29 46° E 20:49:44 10° NNE
Abrixas rocket 3.4 20:43:12 10° WSW 20:46:22 44° NNW 20:49:32 10° NE
Spot 2 Rocket 3.5 20:41:59 10° SSE 20:47:02 68° ENE 20:52:06 10° N
Cosmos 1980 Rocket 2.3 20:46:24 10° SSW 20:52:03 83° WNW 20:57:47 10° NNE
CZ-2D R/B 3.2 20:54:17 10° SSE 20:58:10 81° ENE 21:02:04 10° N
Resurs 1-3 3.6 20:54:56 10° SSE 20:59:19 88° E 21:03:43 10° NNW
SL-8 R/B 3.7 20:55:17 10° NW 21:00:07 83° SW 21:03:56 16° SE
Helios 1B rocket 2.6 20:56:27 10° NNE 21:00:25 47° E 21:04:22 10° S
Lacrosse 4 Rocket 3.3 20:58:37 10° NNE 21:01:25 16° NE 21:03:17 13° E
Cosmos 2227 Rocket 4.3 20:57:04 10° NW 21:01:40 26° WSW 21:06:14 10° SSW
Meteor 1-29 3.5 20:59:06 10° NNE 21:02:20 35° E 21:05:31 10° SSE
Cosmos 1869 Rocket 3.5 21:01:49 10° N 21:06:19 79° E 21:10:46 10° S
Envisat 3.4 21:02:47 13° SE 21:06:56 43° ENE 21:11:44 10° N
SL-16 R/B 2.5 21:01:52 10° S 21:07:10 43° ESE 21:12:29 10° NE
Cosmos 1302 Rocket 4.1 21:02:02 10° SSW 21:07:15 81° WNW 21:12:27 10° NNE
Cosmos 1900 4.4 21:02:11 10° NNW 21:07:18 72° ENE 21:11:23 16° SE
Cosmos 1825 3.4 21:04:11 10° NNE 21:07:18 24° ENE 21:08:25 21° ESE
Cosmos 1939 Rocket 3.6 21:09:41 21° SE 21:11:46 34° ENE 21:15:27 10° N
Cosmos 2242 Rocket 4.0 21:07:32 10° SSE 21:11:49 43° E 21:16:05 10° NNE
Milstar 3 3.2 21:04:54 10° WSW 21:12:55 50° S 21:17:22 20° ESE
CZ-4B DEB 3.1 21:15:55 31° ESE 21:16:48 41° ENE 21:19:41 10° N
Cosmos 2279 Rocket 4.3 21:11:38 10° SSE 21:17:28 44° E 21:23:19 10° NNE
Spot 1 4.5 21:13:24 12° SSE 21:18:11 71° ENE 21:23:17 10° N
CZ-3 Stage 3 4.4 20:45:07 10° WNW 21:19:53 41° SW 21:26:18 13° SSE
ATLAS 5 CENTAUR R/B 4.3 21:17:32 10° N 21:21:09 16° NE 21:24:21 11° ENE
GPS 2-04 Rocket1 4.0 21:19:50 10° W 21:22:53 25° SSW 21:24:17 20° S
USA 234 3.4 21:20:14 21° ESE 21:24:44 62° NE 21:31:12 10° NW
SEDSat Delta rocket 4.1 21:20:27 10° SW 21:25:33 42° SSE 21:28:23 26° ESE
OAO 3 Rocket 3.1 21:21:31 10° WSW 21:26:26 78° S 21:29:18 25° E
Meteor 2-20 4.4 21:21:15 10° N 21:27:23 81° E 21:33:17 11° S
Resurs 01 Rocket 3.1 21:23:54 10° SSW 21:27:59 36° W 21:32:05 10° NNW
Helios 1A 3.0 21:26:48 17° S 21:30:03 83° W 21:34:18 10° NNW
Atlas Centaur 2 3.4 21:23:45 10° SW 21:30:20 38° SSE 21:34:14 25° ESE
SAR-Lupe-4 3.7 21:32:48 24° S 21:34:51 71° WSW 21:38:26 10° NNW
Cosmos 2227 4.2 21:32:02 10° NNW 21:37:47 85° WSW 21:41:23 24° SSE
FALCON 9 R/B 0.9 21:36:16 10° W 21:38:04 44° WSW 21:38:04 44° WSW
ERS-1 Rocket 3.3 21:42:11 36° ESE 21:43:35 46° ENE 21:48:23 10° N
Cosmos 1408 2.5 21:45:44 10° N 21:49:26 85° W 21:50:06 58° S
ERBS 2.7 21:49:34 10° NNW 21:52:43 52° NNE 21:52:43 52° NNE
SeaSat 1 3.3 22:00:11 32° ENE 22:00:34 32° ENE 22:04:56 10° N
Cosmos 1992 Rocket 4.0 21:55:53 10° SSW 22:01:06 84° WNW 22:06:23 10° NNE
Cosmos 220 Rocket 4.1 21:57:05 10° NNW 22:01:32 74° WSW 22:02:29 53° S
USA 229 DEB 4.0 22:04:18 41° ESE 22:04:18 41° ESE 22:10:19 10° NE
USA 229 4.0 22:04:34 40° ESE 22:04:34 40° ESE 22:10:25 10° NE
OTV 4 3.3 22:02:40 10° WSW 22:03:10 12° WSW 22:03:10 12° WSW
Cosmos 2026 Rocket 4.3 21:59:33 10° NNW 22:05:44 66° W 22:09:53 21° S
MetOp-A 4.2 22:08:21 55° ESE 22:08:58 59° ENE 22:14:14 10° N
Cosmos 1908 Rocket 4.4 22:07:59 10° N 22:11:04 37° NE 22:11:04 37° NE
Cosmos 1933 3.8 22:14:41 50° WSW 22:15:18 57° W 22:19:17 10° N
DELTA 2 R/B (1) 4.1 22:13:02 10° WNW 22:18:20 43° SSW 22:18:45 42° SSW
YAOGAN 6 3.5 22:20:14 47° WNW 22:20:14 47° WNW 22:23:23 10° NNW
H-2A R/B 3.1 22:24:03 30° NE 22:24:03 30° NE 22:27:27 10° N
Cosmos 2263 Rocket 2.0 22:18:28 10° NNW 22:24:02 77° ENE 22:24:22 74° ESE
Cosmos 2322 Rocket 3.5 22:19:00 10° SW 22:24:10 38° WNW 22:29:25 10° N
Terra 3.9 22:26:53 16° NE 22:26:53 16° NE 22:28:28 10° NNE
Meteor 2-10 Rocket 3.9 22:30:49 47° SSW 22:32:33 75° W 22:38:23 10° N
Cosmos 1733 Rocket 4.3 22:29:43 10° NNW 22:33:49 37° W 22:34:28 35° WSW
Cosmos 2360 Rocket 2.1 22:34:16 67° SSW 22:35:03 85° WNW 22:40:46 10° NNE
Lacrosse 4 Rocket 2.6 22:36:11 10° NW 22:39:39 40° W 22:39:39 40° W
Cosmos 2322 3.6 22:40:41 84° NNE 22:40:41 84° NNE 22:46:13 10° NNE
NOAA 11 4.3 22:42:49 67° WSW 22:43:05 68° WSW 22:48:34 10° NNW
Cosmos 968 Rocket 3.9 22:42:14 10° NNW 22:46:23 56° N 22:46:23 56° N
SL-16 R/B 4.4 22:46:53 10° WSW 22:51:24 24° WNW 22:55:56 10° N
Cosmos 2266 Rocket 3.9 22:47:17 10° N 22:53:34 81° W 22:53:45 80° WSW
SPOT 5 3.5 22:54:50 53° NW 22:54:50 53° NW 22:58:39 10° NNW
ATLAS 5 CENTAUR R/B 2.6 23:00:31 10° NNW 23:05:54 70° N 23:05:54 70° N
BREEZE-M DEB (TANK) 4.5 22:52:43 10° NW 23:07:31 60° SW 23:07:31 60° SW
USA 234 4.3 23:07:35 32° SW 23:07:54 32° SW 23:13:38 10° WNW
SPOT 1/Viking Rocket 4.4 23:11:28 48° NW 23:11:28 48° NW 23:15:20 10° NNW
ARGOS 4.0 23:11:51 45° WNW 23:11:51 45° WNW 23:16:17 10° NNW
Cosmos 2278 Rocket 4.3 23:11:55 10° NNE 23:14:18 17° NE 23:14:18 17° NE
Atlas Centaur 2 3.6 23:11:56 10° WSW 23:16:54 41° SW 23:16:54 41° SW
Cosmos 1844 Rocket 4.0 23:22:27 10° NNW 23:25:44 34° N 23:25:44 34° N
Cosmos 2219 Rocket 4.1 23:45:20 21° NNE 23:45:20 21° NNE 23:47:07 10° NNE
